Find Starlink 33583

NORAD ID: 63503 Int'l Des: 2025-071 Owner: SPXS Country: US Constellation: starlink operational
LEOCIRCULAR

現在のビュー

3D地球を読み込み中...

About Starlink 33583

Starlink 33583 (NORAD 63503) is a starlink constellation satellite (v2 mini) launched Apr 7, 2025 by SPXS of US. It operates in LEO, CIRCULAR orbit with a mass of 575.00 kg.

Starlink 33583について

説明を読み込み中...

次回通過

Passes for default location (London). Set your location on the main map for personalized predictions.

高度履歴

Loading altitude history...

軌道要素

1 63503U 25071L 26194.57928886 .00009273 00000-0 28511-3 0 9998
2 63503 53.1580 270.2229 0000986 84.4035 275.7080 15.34412557 72119
Epoch: Jul 13, 2026 • Age: 19 hours

現在のステータス

高度 466.3 km
遠地点 / 近地点 N/A
速度 7.64 km/s
衛星直下点 43.39°N, 114.7°W
打ち上げ日 Apr 7, 2025
運用期間 1.2 years
タイプ internet

技術仕様

分類 Payload
質量 575.00 kg
乾燥質量 530.00 kg
総質量 575.00 kg
長さ 0.30 m
直径 4.10 m
スパン 29.00 m
形状 Box + pan
製造者 SPXS
バスタイプ Starlink V2MO
フェーズステータス In Orbit
所有者/国 SPXS/US

Most Searched